CW4226 Weather Reports


Display with metric or nautical units.
time (UTC)temp
F
wind
direction
speed
MPH
gust
MPH
rain 1hr
in
rain 24hr
in
rain mn
in
humidity
%
barometer
mb
20260504202105 70 230 4.0 6.0 0.00 0.00 0.00 35 1003.5
20260504201602 70 29 4.0 7.0 0.00 0.00 0.00 32 1003.3
20260504201554 70 245 3.0 7.0 0.00 0.00 0.00 30 1002.3
20260504201100 70 234 6.0 6.0 0.00 0.00 0.00 35 1003.3
20260504200556 72 185 2.0 5.0 0.00 0.00 0.00 34 1003.4
20260504200053 72 233 2.0 6.0 0.00 0.00 0.00 35 1003.5
20260504195549 74 224 10.0 12.0 0.00 0.00 0.00 30 1003.3
20260504195046 73 293 0.0 4.0 0.00 0.00 0.00 32 1003.6
20260504194555 73 233 2.0 5.0 0.00 0.00 0.00 28 1002.3
20260504194543 73 248 2.0 6.0 0.00 0.00 0.00 30 1003.6
20260504194038 74 234 4.0 4.0 0.00 0.00 0.00 31 1003.7
20260504193535 75 265 2.0 4.0 0.00 0.00 0.00 34 1003.9
20260504193056 72 229 2.0 9.0 0.00 0.00 0.00 36 1002.5
20260504193034 73 243 3.0 5.0 0.00 0.00 0.00 37 1003.8
20260504192531 73 227 4.0 10.0 0.00 0.00 0.00 30 1003.8
20260504192029 71 30 2.0 4.0 0.00 0.00 0.00 29 1004.1
20260504191556 72 226 3.0 5.0 0.00 0.00 0.00 31 1002.8
20260504191527 71 191 0.0 6.0 0.00 0.00 0.00 30 1004.1
20260504191023 73 288 2.0 4.0 0.00 0.00 0.00 29 1004.2
20260504190519 73 262 3.0 6.0 0.00 0.00 0.00 35 1004.1
20260504190055 72 221 2.0 12.0 0.00 0.00 0.00 33 1002.7
20260504190015 72 227 4.0 4.0 0.00 0.00 0.00 35 1004.1
20260504185512 71 240 5.0 11.0 0.00 0.00 0.00 34 1004.3
20260504185009 72 227 12.0 13.0 0.00 0.00 0.00 31 1004.4
20260504184555 71 218 2.0 9.0 0.00 0.00 0.00 31 1002.8
20260504184504 71 242 4.0 6.0 0.00 0.00 0.00 33 1004.1
20260504184000 71 224 3.0 9.0 0.00 0.00 0.00 34 1004.2
20260504183457 71 233 1.0 2.0 0.00 0.00 0.00 33 1004.2
20260504183056 71 241 3.0 6.0 0.00 0.00 0.00 30 1002.8
20260504182955 71 275 2.0 6.0 0.00 0.00 0.00 37 1004.2
20260504182452 73 246 1.0 5.0 0.00 0.00 0.00 39 1004.3
20260504181949 72 242 3.0 5.0 0.00 0.00 0.00 34 1004.4
20260504181555 70 253 2.0 9.0 0.00 0.00 0.00 37 1003.0
20260504181446 71 265 2.0 5.0 0.00 0.00 0.00 35 1004.3
20260504180945 69 304 2.0 4.0 0.00 0.00 0.00 37 1004.6
20260504180443 69 225 3.0 10.0 0.00 0.00 0.00 32 1004.6
20260504180055 68 247 3.0 14.0 0.00 0.00 0.00 35 1003.3
20260504175941 68 235 3.0 9.0 0.00 0.00 0.00 41 1004.8
20260504175438 68 233 10.0 10.0 0.00 0.00 0.00 36 1004.8
20260504174935 69 309 0.0 4.0 0.00 0.00 0.00 39 1004.5
20260504174555 69 233 3.0 10.0 0.00 0.00 0.00 39 1003.4
20260504174433 69 244 3.0 7.0 0.00 0.00 0.00 36 1004.6
20260504173930 68 227 3.0 8.0 0.00 0.00 0.00 33 1004.7
20260504173426 70 233 5.0 8.0 0.00 0.00 0.00 39 1004.9
20260504173055 69 263 2.0 10.0 0.00 0.00 0.00 33 1003.3
20260504172924 69 227 5.0 8.0 0.00 0.00 0.00 38 1004.8
20260504172420 69 255 4.0 8.0 0.00 0.00 0.00 38 1004.8
20260504171916 70 250 5.0 9.0 0.00 0.00 0.00 32 1005.0
20260504171555 69 225 2.0 9.0 0.00 0.00 0.00 39 1003.6
20260504171414 69 218 4.0 6.0 0.00 0.00 0.00 34 1004.8
20260504170910 68 233 4.0 5.0 0.00 0.00 0.00 40 1005.2
20260504170407 68 264 2.0 11.0 0.00 0.00 0.00 37 1005.2
20260504160326 65 257 5.0 6.0 0.00 0.00 0.00 36 1006.1
20260504150750 63 241 2.0 6.0 0.00 0.00 0.00 44 1006.7
20260504150247 63 252 3.0 6.0 0.00 0.00 0.00 37 1006.8
20260504141217 59 271 5.0 5.0 0.00 0.00 0.00 37 1007.2
20260504140714 58 240 8.0 13.0 0.00 0.00 0.00 36 1007.2
20260504140209 58 227 3.0 3.0 0.00 0.00 0.00 39 1007.4
20260504130637 55 234 4.0 7.0 0.00 0.00 0.00 39 1007.6
20260504130134 55 51 2.0 7.0 0.00 0.00 0.00 40 1007.9
20260504110525 40 57 1.0 2.0 0.00 0.00 0.00 74 1008.4
20260504100442 37 54 2.0 3.0 0.00 0.00 0.00 75 1008.1
20260504081840 39 62 2.0 3.0 0.00 0.00 0.00 69 1008.4
20260504081554 40 92 0.0 1.0 0.00 0.00 0.00 68 1007.5
20260504081337 40 62 2.0 4.0 0.00 0.00 0.00 69 1008.6
20260504080833 40 66 2.0 3.0 0.00 0.00 0.00 68 1008.2
20260504080331 40 70 2.0 3.0 0.00 0.00 0.00 69 1008.3
20260504070258 43 67 2.0 2.0 0.00 0.00 0.00 61 1008.1
20260504060218 49 61 1.0 2.0 0.00 0.00 0.00 46 1008.2
20260504050646 43 72 2.0 3.0 0.00 0.00 0.00 63 1008.3
20260504050143 42 66 2.0 3.0 0.00 0.00 0.00 62 1008.2
20260504045640 43 41 2.0 3.0 0.00 0.00 0.00 61 1008.2
20260504045140 44 68 2.0 3.0 0.00 0.00 0.00 60 1008.2
20260504044638 42 72 2.0 3.0 0.00 0.00 0.00 63 1008.2
20260504044555 43 116 0.0 3.0 0.00 0.00 0.00 64 1007.2
20260504044135 44 50 3.0 4.0 0.00 0.00 0.00 61 1008.2
20260504043632 43 69 3.0 3.0 0.00 0.00 0.00 58 1008.3
20260504043129 42 68 2.0 3.0 0.00 0.00 0.00 63 1008.3
20260504043055 43 74 1.0 2.0 0.00 0.00 0.00 63 1007.1
20260504042626 42 44 2.0 3.0 0.00 0.00 0.00 62 1008.0
20260504042123 42 55 2.0 3.0 0.00 0.00 0.00 63 1007.9
20260504041618 43 80 2.0 3.0 0.00 0.00 0.00 62 1008.0
20260504041115 43 35 1.0 3.0 0.00 0.00 0.00 60 1007.9
20260504040612 44 52 3.0 3.0 0.00 0.00 0.00 60 1007.8
20260504040109 43 54 2.0 3.0 0.00 0.00 0.00 61 1007.9
20260504040054 43 72 0.0 2.0 0.00 0.00 0.00 62 1007.0
20260504035606 43 70 1.0 3.0 0.00 0.00 0.00 61 1008.0
20260504035102 43 46 2.0 4.0 0.00 0.00 0.00 59 1007.8
20260504034600 43 48 2.0 3.0 0.00 0.00 0.00 60 1007.9
20260504034556 43 92 0.0 2.0 0.00 0.00 0.00 61 1007.0
20260504034057 43 63 2.0 4.0 0.00 0.00 0.00 60 1007.9
20260504033555 43 66 3.0 3.0 0.00 0.00 0.00 59 1008.0
20260504033052 42 64 2.0 3.0 0.00 0.00 0.00 60 1008.0
20260504032549 42 63 2.0 3.0 0.00 0.00 0.00 63 1007.9
20260504032045 41 69 2.0 3.0 0.00 0.00 0.00 66 1007.8
20260504031542 41 66 3.0 4.0 0.00 0.00 0.00 66 1007.8
20260504031038 41 46 3.0 4.0 0.00 0.00 0.00 67 1007.8
20260504030536 41 62 2.0 3.0 0.00 0.00 0.00 67 1007.9
20260504030054 42 53 0.0 2.0 0.00 0.00 0.00 66 1007.1
20260504030032 42 77 1.0 3.0 0.00 0.00 0.00 66 1007.9
20260504025530 42 58 2.0 3.0 0.00 0.00 0.00 65 1007.9
20260504025026 42 76 0.0 4.0 0.00 0.00 0.00 65 1007.8
20260504024523 42 77 2.0 3.0 0.00 0.00 0.00 65 1007.9
20260504024020 42 67 2.0 3.0 0.00 0.00 0.00 64 1007.8
20260504023517 42 42 3.0 3.0 0.00 0.00 0.00 65 1008.0
20260504023055 43 41 0.0 1.0 0.00 0.00 0.00 65 1007.1
20260504023012 42 66 2.0 2.0 0.00 0.00 0.00 66 1008.0
20260504022508 42 49 2.0 3.0 0.00 0.00 0.00 64 1007.8
20260504022005 43 45 2.0 3.0 0.00 0.00 0.00 64 1007.9
20260504021554 44 39 0.0 1.0 0.00 0.00 0.00 63 1007.0
20260504021503 43 56 2.0 3.0 0.00 0.00 0.00 64 1008.0
20260504020959 43 47 3.0 3.0 0.00 0.00 0.00 65 1007.8
20260504020456 43 64 2.0 3.0 0.00 0.00 0.00 63 1008.0
20260504020054 45 40 0.0 0.0 0.00 0.00 0.00 61 1007.1
20260504015953 44 54 2.0 2.0 0.00 0.00 0.00 62 1008.1
20260504015449 44 61 2.0 3.0 0.00 0.00 0.00 62 1007.8
20260504014945 44 54 2.0 2.0 0.00 0.00 0.00 62 1007.9
20260504014554 45 40 0.0 2.0 0.00 0.00 0.00 60 1007.1
20260504014441 44 51 2.0 3.0 0.00 0.00 0.00 62 1007.9
20260504013938 44 64 2.0 3.0 0.00 0.00 0.00 60 1007.8
20260504013437 45 54 2.0 3.0 0.00 0.00 0.00 60 1007.8
20260504012932 45 63 2.0 3.0 0.00 0.00 0.00 59 1007.7
20260504012431 45 61 2.0 2.0 0.00 0.00 0.00 59 1007.6
20260504011928 46 53 1.0 3.0 0.00 0.00 0.00 58 1007.8
20260504011555 48 5 0.0 1.0 0.00 0.00 0.00 55 1006.7
20260504011425 46 69 2.0 3.0 0.00 0.00 0.00 57 1007.7
20260504010920 46 64 2.0 3.0 0.00 0.00 0.00 57 1007.7
20260504010416 47 66 2.0 2.0 0.00 0.00 0.00 56 1007.6
20260504010054 49 5 0.0 1.0 0.00 0.00 0.00 52 1006.6
20260504005913 47 57 2.0 2.0 0.00 0.00 0.00 55 1007.7
20260504005409 48 51 2.0 3.0 0.00 0.00 0.00 54 1007.3
20260504004908 48 54 2.0 3.0 0.00 0.00 0.00 53 1007.5
20260504004405 48 68 2.0 3.0 0.00 0.00 0.00 52 1007.5
20260504003901 49 59 2.0 3.0 0.00 0.00 0.00 50 1007.4
20260504003358 49 64 2.0 3.0 0.00 0.00 0.00 49 1007.4
20260504002854 50 74 2.0 3.0 0.00 0.00 0.00 46 1007.3
20260504002351 51 63 2.0 2.0 0.00 0.00 0.00 44 1007.5
20260504001849 51 61 2.0 3.0 0.00 0.00 0.00 43 1007.1
20260504001555 53 345 0.0 1.0 0.00 0.00 0.00 40 1006.1
20260504001346 52 63 2.0 2.0 0.00 0.00 0.00 40 1007.0
20260504000843 52 52 0.0 3.0 0.00 0.00 0.00 39 1007.0
20260504000340 53 49 2.0 2.0 0.00 0.00 0.00 38 1007.0
20260504000055 54 340 0.0 2.0 0.00 0.00 0.00 37 1006.0
20260503235837 53 43 1.0 2.0 0.00 0.00 0.00 39 1006.9
20260503235335 53 1 1.0 4.0 0.00 0.00 0.00 40 1007.0
20260503234832 54 65 1.0 2.0 0.00 0.00 0.00 39 1006.9
20260503234555 55 234 0.0 1.0 0.00 0.00 0.00 36 1005.9
20260503234330 54 43 1.0 2.0 0.00 0.00 0.00 37 1006.9
20260503233828 54 55 2.0 2.0 0.00 0.00 0.00 38 1006.9
20260503233323 54 46 2.0 2.0 0.00 0.00 0.00 39 1006.7
20260503233055 55 234 0.0 2.0 0.00 0.00 0.00 36 1005.9
20260503232820 54 63 2.0 2.0 0.00 0.00 0.00 37 1006.7
20260503232318 54 53 2.0 2.0 0.00 0.00 0.00 41 1006.9
20260503231815 54 36 0.0 2.0 0.00 0.00 0.00 41 1006.8
20260503231555 55 234 1.0 3.0 0.00 0.00 0.00 38 1005.9
20260503231312 54 246 0.0 1.0 0.00 0.00 0.00 39 1006.9
20260503230808 54 37 0.0 1.0 0.00 0.00 0.00 37 1006.9
20260503230305 54 324 0.0 4.0 0.00 0.00 0.00 37 1006.9
20260503230055 55 152 0.0 3.0 0.00 0.00 0.00 39 1005.9
20260503225803 54 44 0.0 2.0 0.00 0.00 0.00 38 1006.8
20260503225258 55 47 2.0 2.0 0.00 0.00 0.00 38 1006.4
20260503224755 55 52 2.0 2.0 0.00 0.00 0.00 37 1006.8
20260503224555 55 237 0.0 2.0 0.00 0.00 0.00 38 1005.9
20260503224252 55 55 2.0 2.0 0.00 0.00 0.00 38 1006.8
20260503223750 55 58 0.0 2.0 0.00 0.00 0.00 38 1006.7
20260503223247 55 44 0.0 2.0 0.00 0.00 0.00 37 1007.0
20260503223055 56 161 1.0 3.0 0.00 0.00 0.00 37 1005.9
20260503222743 55 216 0.0 3.0 0.00 0.00 0.00 40 1006.9
20260503222241 55 61 2.0 2.0 0.00 0.00 0.00 37 1006.7
20260503221740 55 53 1.0 2.0 0.00 0.00 0.00 37 1006.8
20260503221555 55 239 0.0 2.0 0.00 0.00 0.00 36 1005.9
20260503221237 55 118 0.0 2.0 0.00 0.00 0.00 38 1007.0
20260503220733 56 51 1.0 2.0 0.00 0.00 0.00 38 1006.9
20260503220230 55 81 0.0 3.0 0.00 0.00 0.00 38 1006.8
20260503220055 56 222 1.0 3.0 0.00 0.00 0.00 36 1005.9
20260503215727 55 49 2.0 2.0 0.00 0.00 0.00 38 1006.7
20260503215224 55 93 0.0 2.0 0.00 0.00 0.00 39 1006.7
20260503214722 56 46 2.0 2.0 0.00 0.00 0.00 38 1006.8
20260503214555 56 175 1.0 6.0 0.00 0.00 0.00 37 1005.9
20260503214219 56 58 2.0 4.0 0.00 0.00 0.00 36 1006.9
20260503213717 56 55 2.0 3.0 0.00 0.00 0.00 35 1006.7
20260503213214 56 21 2.0 4.0 0.00 0.00 0.00 37 1006.8
20260503212710 56 65 0.0 3.0 0.00 0.00 0.00 37 1006.7
20260503212208 56 274 2.0 4.0 0.00 0.00 0.00 37 1006.7
20260503211706 56 93 1.0 4.0 0.00 0.00 0.00 36 1006.6
20260503211555 56 329 1.0 3.0 0.00 0.00 0.00 35 1005.7
20260503211201 56 97 2.0 4.0 0.00 0.00 0.00 34 1006.7
20260503210657 56 37 2.0 3.0 0.00 0.00 0.00 36 1006.6
20260503210155 57 71 3.0 7.0 0.00 0.00 0.00 34 1006.4
20260503210054 57 26 2.0 7.0 0.00 0.00 0.00 32 1005.6
20260503205650 57 67 2.0 3.0 0.00 0.00 0.00 33 1006.7
20260503205146 58 76 3.0 3.0 0.00 0.00 0.00 32 1006.6
20260503204643 58 235 0.0 3.0 0.00 0.00 0.00 34 1006.8
20260503204555 57 177 1.0 7.0 0.00 0.00 0.00 31 1005.7
20260503204141 58 138 2.0 4.0 0.00 0.00 0.00 34 1006.7
20260503203637 58 269 0.0 10.0 0.00 0.00 0.00 34 1006.7
20260503203135 58 118 1.0 3.0 0.00 0.00 0.00 36 1006.6
20260503203055 57 220 1.0 3.0 0.00 0.00 0.00 35 1005.8
20260503202632 57 89 0.0 4.0 0.00 0.00 0.00 33 1006.8